User: anonymous   Login
Location: Unspecified
(0.0000°N, 0.0000°E)
Time: 19:38:55
(UTC+00:00)
Language:

Kosmos-2142 - Orbit

View from above orbital plane
View from above orbital plane
View from above satellite
View from above satellite

Ground track
Ground track

The orbit data is extracted from the following two-line orbital elements,

1 21230U 91029A   18202.17241876  .00000029  00000-0  15342-4 0  9998
2 21230  82.9542 207.8000 0037171 324.6534  85.1917 13.73123067366237
Epoch (UTC): 21 July 2018 04:08:16
Eccentricity: 0.0037171
inclination: 82.9542°
perigee height: 961 km
apogee height: 1016 km
right ascension of ascending node: 207.8000°
argument of perigee: 324.6534°
revolutions per day: 13.73123067
mean anomaly at epoch: 85.1917°
orbit number at epoch: 36623

The dashed part of the orbit path shows where the satellite is in the earth's shadow,  

DLR